Volver al catálogo

THORAD AGENA D DEB

ActivoPO
NORAD 4932·DEBRIS·🇺🇸 United States

Lanzado Apr 8, 1970 desde Vandenberg Space Force Base

Loading…

Próximos Pases (próximas 24 horas)

TLE

ActualizadoSource: Space-Track

Época: Sep 14, 2026, 08:32 UTC

1 04932U 70025FY  26257.35581940  .00001469  00000-0  10451-2 0  9992
2 04932  99.8001 285.2611 0030259  93.8247 279.9686 13.99090573815641

Sigue THORAD AGENA D DEB en tiempo real con AllMySat

Download on the App Store